Weather History for Gillette, WY

Change the Weather History Date:

Saturday, January 19, 2013

  Actual Average Record
Temperature  
Mean Temperature 32 °F 26 °F  
Max Temperature 42 °F 37 °F - ()
Min Temperature 21 °F 15 °F - ()
Degree Days  
Heating Degree Days 33 39  
Month to date heating degree days 778 746  
Since 1 July heating degree days 3618 3887  
Cooling Degree Days 0 0  
Month to date cooling degree days 0 0  
Year to date cooling degree days 0 0  
Moisture  
Dew Point 20 °F    
Average Humidity 66    
Maximum Humidity 96    
Minimum Humidity 36    
Precipitation  
Precipitation 0.00 in 0.02 in - ()
Month to date precipitation 0.15 0.20  
Year to date precipitation 0.15 0.20  
Sea Level Pressure  
Sea Level Pressure 30.16 in    
Wind  
Wind Speed 11 mph (West)    
Max Wind Speed 22 mph    
Max Gust Speed 29 mph    
Visibility 10 miles    
Events      
T = Trace of Precipitation, MM = Missing Value Source: NWS Daily Summary

Daily Weather History Graph

Daily Weather History Graph

Search for Another Location

Airport:

Trip Planner

Search our weather history database for the weather conditions in past years. The results will help you decide how hot, cold, wet, or windy it might be!

Date:

Astronomy

Jan. 19, 2013 Rise Set
Actual Time 7:32 AM MST 4:54 PM MST
Civil Twilight 7:00 AM MST 5:26 PM MST
Nautical Twilight 6:24 AM MST 6:02 PM MST
Astronomical Twilight 5:49 AM MST 6:36 PM MST
Moon 11:24 AM MST (1/19) 1:05 AM MST (1/19)
Length of Visible Light 10h 26m
Length of Day
9h 22m
First Quarter, 58% of the Moon is Illuminated
Jan 19
First Quarter
Jan 26
Full
Feb 3
Last Quarter
Feb 10
New
Feb 17
First Quarter

Hourly Weather History & Observations

Time (MST) Temp. Windchill Dew Point Humidity Pressure Visibility Wind Dir Wind Speed Gust Speed Precip Events Conditions
12:53 AM 39.9 °F 31.8 °F 17.1 °F 40% 29.99 in 10.0 mi WNW 15.0 mph - N/A   Clear
1:53 AM 30.0 °F 20.5 °F 18.0 °F 61% 30.04 in 10.0 mi West 11.5 mph - N/A   Clear
2:53 AM 30.9 °F 20.7 °F 18.0 °F 59% 30.06 in 10.0 mi West 13.8 mph - N/A   Clear
3:53 AM 32.0 °F 23.0 °F 17.1 °F 54% 30.07 in 10.0 mi West 11.5 mph - N/A   Clear
4:53 AM 28.0 °F 19.3 °F 17.1 °F 63% 30.12 in 10.0 mi West 9.2 mph - N/A   Clear
5:53 AM 28.0 °F 17.5 °F 17.1 °F 63% 30.13 in 10.0 mi WSW 12.7 mph - N/A   Clear
6:53 AM 26.1 °F 16.2 °F 16.0 °F 66% 30.15 in 10.0 mi West 10.4 mph - N/A   Clear
7:53 AM 30.0 °F 20.5 °F 17.1 °F 59% 30.16 in 10.0 mi West 11.5 mph - N/A   Clear
8:53 AM 37.0 °F 29.8 °F 17.1 °F 44% 30.17 in 10.0 mi West 10.4 mph - N/A   Clear
9:53 AM 39.9 °F 33.4 °F 17.1 °F 40% 30.18 in 10.0 mi West 10.4 mph - N/A   Clear
10:53 AM 42.1 °F 35.7 °F 18.0 °F 38% 30.18 in 10.0 mi NW 11.5 mph - N/A   Clear
11:53 AM 42.1 °F 34.2 °F 19.9 °F 41% 30.19 in 10.0 mi North 16.1 mph - N/A   Clear
12:53 PM 39.9 °F 33.9 °F 21.9 °F 49% 30.19 in 10.0 mi North 9.2 mph - N/A   Clear
1:53 PM 39.9 °F 32.9 °F 21.9 °F 49% 30.24 in 10.0 mi North 11.5 mph - N/A   Clear
2:53 PM 39.0 °F 34.0 °F 21.9 °F 50% 30.24 in 10.0 mi North 6.9 mph - N/A   Clear
3:53 PM 35.1 °F 29.3 °F 25.0 °F 67% 30.25 in 10.0 mi ENE 6.9 mph - N/A   Clear
4:53 PM 30.0 °F 25.2 °F 24.1 °F 79% 30.26 in 10.0 mi ESE 4.6 mph - N/A   Clear
5:53 PM 26.1 °F 21.9 °F 23.0 °F 88% 30.27 in 10.0 mi South 3.5 mph - N/A   Clear
6:53 PM 23.0 °F 18.4 °F 21.0 °F 92% 30.27 in 10.0 mi South 3.5 mph - N/A   Clear
7:53 PM 25.0 °F 17.1 °F 21.9 °F 88% 30.24 in 10.0 mi South 6.9 mph - N/A   Clear
8:53 PM 25.0 °F 13.6 °F 21.9 °F 88% 30.19 in 10.0 mi South 12.7 mph - N/A   Clear
9:53 PM 28.0 °F 24.2 °F 21.9 °F 78% 30.16 in 10.0 mi Variable 3.5 mph - N/A   Clear
10:53 PM 28.9 °F 16.1 °F 21.0 °F 72% 30.11 in 10.0 mi South 19.6 mph 28.8 mph N/A   Clear
11:53 PM 30.9 °F 18.7 °F 18.0 °F 59% 30.08 in 10.0 mi SSW 19.6 mph - N/A   Clear